Regional Weather Roundup
Issued by NWS

Home | Current Version | Previous Version | Graphics & Text | Print | Product List | Glossary On
Versions: 1 2 3 4 5 6 7 8 9 10 11 12 13 14 15 16 17 18 19 20 21 22 23 24 25 26 27 28 29 30 31 32 33 34 35 36 37 38 39 40 41 42 43 44 45 46 47 48 49 50
931
ASUS43 KLMK 191202
RWRKY
KENTUCKY REGIONAL WEATHER ROUNDUP
NATIONAL WEATHER SERVICE LOUISVILLE KY
800 AM EDT THU OCT 19 2017

NOTE "FAIR" INDICATES FEW OR NO CLOUDS BELOW 12,000 FEET
WITH NO SIGNIFICANT WEATHER AND/OR OBSTRUCTIONS TO VISIBILITY.

KYZ001>023-026-027-061>063-070>075-191300-
WESTERN AND SOUTH CENTRAL KENTUCKY

CITY           SKY/WX    TMP DP  RH WIND       PRES   REMARKS
PADUCAH        CLEAR     46  42  86 CALM      30.23R
HENDERSON      CLEAR     48  46  93 S6        30.23S
OWENSBORO      CLEAR     49  45  86 S7        30.25R
HOPKINSVILLE   CLEAR     47  44  89 S3        30.25S
BOWLING GREEN  CLEAR     41  39  93 CALM      30.28S FOG
GLASGOW        CLEAR    N/A N/A N/A CALM      30.29R
$$

KYZ024-025-028>034-038-045-046-053-191300-
NORTH CENTRAL KENTUCKY

CITY           SKY/WX    TMP DP  RH WIND       PRES   REMARKS
LOUISVILLE/SDF CLEAR     48  44  86 SE5       30.25R
LOUISVILLE/LOU CLEAR     48  45  89 S7        30.26R
FORT KNOX      CLEAR     47  43  86 S3        30.24R
$$

KYZ035>037-039>044-047>052-055>060-089>105-191300-
NORTHEAST KENTUCKY

CITY           SKY/WX    TMP DP  RH WIND       PRES   REMARKS
LEXINGTON      CLEAR     49  43  80 S8        30.27R
COVINGTON      CLEAR     47  45  93 S8        30.22S
FRANKFORT      CLEAR     43  39  86 S3        30.25S
$$

KYZ054-064>069-076>088-106>120-191300-
SOUTHEAST KENTUCKY

CITY           SKY/WX    TMP DP  RH WIND       PRES   REMARKS
JACKSON        CLEAR     45  43  93 CALM      30.30R
LONDON         CLEAR     41  38  89 S3        30.31R
SOMERSET       CLEAR     41  41 100 CALM      30.31F
MIDDLESBORO    FOG       38  38 100 CALM      30.35R VSB 1/4
MONTICELLO     SUNNY     38  37  97 VRB5      30.33R WCI  34
$$





USA.gov is the U.S. government's official web portal to all federal, state and local government web resources and services.